#timestamp,LO_Frequency,Hit,StdDev 
1661436015.4,286046999.4,N
1661436035.2,286047000.5,N
1661436055.0,286047001.1,N
1661436055.9,286047001.1,N
1661436075.8,286047001.1,N
1661436095.6,286046998.1,N
1661436115.4,286046997.0,N
1661436135.3,286047000.0,N
1661436155.1,286046999.3,N
1661436175.9,286046997.3,N
1661436195.7,286046998.0,N
1661436215.5,286046998.7,N
1661436235.4,286047000.4,N
1661436255.2,286047000.7,N
1661436275.0,286046998.2,N
1661436275.9,286046998.2,N
1661436295.8,286047002.2,N
1661436315.6,286047001.8,N
1661436335.5,286046999.7,N
1661436355.3,286046998.6,N
1661436375.1,286047002.3,N
1661436395.9,286047000.1,N
1661436415.7,286047000.4,N
1661436435.5,286046998.9,N
1661436455.4,286046997.2,N
1661436475.2,286046998.8,N
1661436495.1,286046998.2,N
1661436496.0,286046998.2,N
1661436515.8,286047000.7,N
1661436535.6,286046999.2,N
1661436555.5,286046998.6,N
1661436575.3,286046998.1,N
1661436595.1,286047001.1,N
1661436615.9,286047002.1,N
1661436635.7,286047002.2,N
1661436655.6,286047000.4,N
1661436675.4,286047002.6,N
1661436695.2,286047003.1,N
1661436715.1,286047003.0,N
1661436716.0,286047003.0,N
1661436735.8,286047003.3,N
1661436755.6,286047002.1,N
1661436775.5,286047002.6,N
1661436795.3,286047004.3,N
1661436815.2,286047005.6,N
1661436835.9,286047004.1,N
1661436855.7,286047003.6,N
1661436875.6,286047004.0,N
1661436895.4,286047004.1,N
1661436915.3,286047003.7,N
1661436935.1,286047003.1,N
1661436936.0,286047003.1,N
1661436955.8,286047003.5,N
1661436975.7,286047005.3,N
1661436995.5,286047007.4,Y
1661437015.4,286047003.7,P
1661437035.2,286047003.2,P
1661437055.0,286047004.1,P
1661437055.9,286047004.1,Y
1661437075.8,286047000.5,P
1661437095.6,286047001.7,N
1661437115.5,286047003.7,P
1661437135.3,286047003.7,N
1661437155.1,286046999.9,N
1661437175.9,286047000.1,N
1661437195.7,286047000.5,N
1661437215.5,286046998.5,N
1661437235.4,286046999.3,N
1661437255.2,286047000.1,N
1661437275.1,286046998.4,N
1661437276.0,286046998.4,N
1661437295.8,286046997.1,N
1661437315.6,286046995.6,N
1661437335.5,286046995.5,N
1661437355.3,286046994.5,N
1661437375.2,286046994.0,N
1661437395.9,286046994.4,N
1661437415.7,286046994.3,N
1661437435.6,286046995.6,N
1661437455.4,286046996.4,N
1661437475.2,286046998.0,N
1661437495.1,286046995.7,N
1661437496.0,286046995.7,N
1661437515.8,286046993.5,N
1661437535.7,286046991.7,N
1661437555.5,286046986.3,Y
1661437575.3,286046997.5,P
1661437595.2,286046994.9,P
1661437615.0,286046996.2,N
1661437615.9,286046996.2,Y
1661437635.8,286047001.1,P
1661437655.6,286046997.8,N
1661437675.4,286046998.8,N
1661437695.3,286046999.6,N
1661437715.1,286046997.1,N
1661437735.8,286046997.6,N
1661437755.7,286046997.4,N
1661437775.5,286046995.7,Y
1661437795.4,286046995.4,P
1661437815.2,286046995.8,N
1661437835.0,286046995.2,P
1661437835.9,286046995.2,Y
1661437855.8,286046996.6,P
1661437875.6,286046997.1,P
1661437895.4,286046997.2,P
1661437915.3,286046997.2,Y
1661437935.1,286047001.0,P
1661437955.9,286047000.4,N
1661437975.7,286047000.2,N
1661437995.5,286047002.8,N
1661438015.4,286047002.6,N
1661438035.2,286046998.1,N
1661438055.0,286046999.7,N
1661438056.0,286046999.7,N
1661438075.8,286047002.0,N
1661438095.6,286046998.3,N
1661438115.5,286046997.2,N
1661438135.3,286046993.3,Y
1661438155.1,286046997.9,P
1661438175.9,286046998.3,N
1661438195.7,286046998.8,N
1661438215.6,286046999.1,N
1661438235.4,286047000.7,N
1661438255.2,286047001.2,N
1661438275.1,286046998.8,N
1661438276.0,286046998.8,N
1661438295.8,286047001.0,N
1661438315.6,286047002.1,N
1661438335.5,286047003.6,N
1661438355.3,286047001.8,N
1661438375.2,286047002.0,N
1661438395.9,286047004.4,N
1661438415.7,286047001.4,N
1661438435.6,286047000.4,N
1661438455.4,286047001.0,N
1661438475.2,286046998.6,N
1661438495.1,286047002.6,N
1661438496.0,286047002.6,N
1661438515.8,286046999.1,N
1661438535.7,286047000.7,N
1661438555.5,286047002.1,N
1661438575.3,286047001.7,N
1661438595.2,286047001.6,N
1661438615.0,286046999.9,N
1661438615.9,286046999.9,N
1661438635.7,286047002.6,N
1661438655.6,286046998.8,N
1661438675.4,286046998.9,N
1661438695.3,286046999.5,N
1661438715.1,286046997.3,N
1661438716.0,286046997.3,N
1661438735.8,286046996.6,N
1661438755.7,286046998.6,N
1661438775.5,286047001.5,N
1661438795.3,286047001.7,N
1661438815.2,286047000.3,N
1661438835.0,286046998.2,N
1661438835.9,286046998.2,N
1661438855.8,286046998.2,N
1661438875.6,286046998.4,N
1661438895.4,286047000.0,N
1661438915.3,286047000.7,N
1661438935.1,286046998.8,N
1661438955.8,286047001.0,N
1661438975.7,286047001.4,N
1661438995.5,286047004.2,N
1661439015.4,286047005.2,N
1661439035.2,286047006.0,N
1661439055.0,286047007.1,Y
1661439055.9,286047007.1,P
1661439075.8,286047004.1,N
1661439095.6,286047004.2,N
1661439115.5,286047002.8,N
1661439135.3,286047001.8,N
1661439155.1,286047003.2,N
1661439175.9,286047004.4,N
1661439195.7,286047004.4,N
1661439215.5,286047000.2,N
1661439235.4,286046999.2,N
1661439255.2,286046998.8,N
1661439275.0,286046999.1,N
1661439276.0,286046999.1,N
1661439295.8,286047000.8,N
1661439315.6,286046999.9,N
1661439335.5,286047001.3,N
1661439355.3,286047005.7,N
1661439375.1,286047007.4,N
1661439395.9,286047009.2,Y
1661439415.7,286047006.0,P
1661439435.6,286047003.0,N
1661439455.4,286047002.2,N
1661439475.2,286047000.2,N
1661439495.1,286046999.7,N
1661439496.0,286046999.7,N
1661439515.8,286047002.1,N
1661439535.6,286047001.3,N
1661439555.5,286047003.9,N
1661439575.3,286047003.1,N
1661439595.2,286047002.6,N
